Location: Black Skies Observatory
(44.7549°N, 79.7179°W)
Time: 14:57:04
(UTC-05:00)

Envisat - Pass Details

Date: 03 November 2020
Orbit: 764 x 766 km, 98.1° (Epoch: 01 December)

Event Time Altitude Azimuth Distance (km) Brightness Sun altitude
Rises 18:56:51 0° 219° (SW) 3,222 6.8 -20.4°
Reaches altitude 10° 19:00:40 10° 248° (WSW) 2,302 6.5 -21.1°
Maximum altitude 19:02:43 12° 273° (W) 2,144 6.4 -21.4°
Drops below altitude 10° 19:04:47 10° 297° (WNW) 2,309 6.4 -21.8°
Sets 19:08:38 0° 327° (NNW) 3,242 6.7 -22.5°
